This is the latest recevied weather packets stored in our database for station/object W1LBM. If no packets are shown the sender has not sent any weather packets the latest 10 day(s).
| Time | Temp. | Humidity | Pressure | Rain* | Wind** | Luminosity | Snow |
|---|---|---|---|---|---|---|---|
| 1777989334 | 19.44° C | 62% | 1013.8 hPa | 0 mm | - | 267 W/m² | - |
| 1777989031 | 19.44° C | 63% | 1014.1 hPa | 0 mm | - | 164 W/m² | - |
| 1777988727 | 18.89° C | 64% | 1013.9 hPa | 0 mm | - | 226 W/m² | - |
| 1777988424 | 18.89° C | 66% | 1013.8 hPa | 0 mm | - | 106 W/m² | - |
| 1777988121 | 18.89° C | 64% | 1014.3 hPa | 0 mm | - | 124 W/m² | - |
| 1777987817 | 18.89° C | 65% | 1014.1 hPa | 0 mm | - | 211 W/m² | - |
| 1777987514 | 18.89° C | 65% | 1014.2 hPa | 0 mm | - | 131 W/m² | - |
| 1777987212 | 18.89° C | 64% | 1014.2 hPa | 0 mm | - | 315 W/m² | - |
| 1777986908 | 18.89° C | 65% | 1014.4 hPa | 0 mm | - | 202 W/m² | - |
| 1777986606 | 17.78° C | 67% | 1014.3 hPa | 0 mm | - | 218 W/m² | - |
| 1777986303 | 17.78° C | 67% | 1014.3 hPa | 0 mm | - | 125 W/m² | - |
| 1777986001 | 17.78° C | 69% | 1014.5 hPa | 0 mm | - | 105 W/m² | - |
| 1777985698 | 17.22° C | 69% | 1014.5 hPa | 0 mm | - | 103 W/m² | - |
| 1777985395 | 17.22° C | 71% | 1014.4 hPa | 0 mm | - | 98 W/m² | - |
| 1777985091 | 17.22° C | 70% | 1014.5 hPa | 0 mm | - | 142 W/m² | - |
| 1777984788 | 16.67° C | 72% | 1014.4 hPa | 0 mm | - | 159 W/m² | - |
| 1777984484 | 16.11° C | 73% | 1014.2 hPa | 0 mm | - | 193 W/m² | - |
| 1777984180 | 15.56° C | 75% | 1014.2 hPa | 0 mm | - | 187 W/m² | - |
| 1777983878 | 15° C | 77% | 1014.3 hPa | 0 mm | - | 121 W/m² | - |
| 1777983574 | 15° C | 78% | 1014.2 hPa | 0 mm | - | 81 W/m² | - |
| 1777983272 | 14.44° C | 80% | 1014.1 hPa | 0 mm | - | 68 W/m² | - |
| 1777982967 | 13.89° C | 81% | 1014.2 hPa | 0 mm | - | 72 W/m² | - |
| 1777982664 | 13.89° C | 81% | 1014.2 hPa | 0 mm | - | 83 W/m² | - |
| 1777982363 | 13.89° C | 81% | 1014.3 hPa | 0 mm | - | 84 W/m² | - |
| 1777982060 | 13.89° C | 82% | 1014.2 hPa | 0 mm | - | 66 W/m² | - |
* Rain latest hour (hover to see other rain measurements)
** Current wind speed in m/s (hover to see current wind gust speed)